Vorticity
7 8 8 12 14 15 14 8 3 3 3 4 4 6 8 8 9 8 9 9 7 10 14 15 20 22 27 31 28 25 18 16 15 16 28 30 26 28 26 26 23 23 32 32 29 22 20 30 20 6 14 15 23 55 58 13 5 24 -26 -45 3 -5 7 39 -2 14 49 -3 -21 -13 -13 27 32 3
6 5 6 10 13 15 12 4 2 4 3 3 4 6 8 7 8 8 9 10 8 11 16 18 20 22 28 31 27 21 12 9 10 12 22 29 30 30 26 26 24 23 30 34 29 21 23 28 20 10 10 17 22 43 66 23 -7 31 -12 -56 4 -10 -30 26 3 0 54 18 -23 -22 -12 20 24 13
3 2 4 8 10 14 12 3 3 5 2 3 5 6 9 8 7 8 8 11 10 11 17 22 22 21 29 33 24 15 10 9 11 12 16 25 31 34 31 27 24 24 27 33 31 20 24 29 18 12 8 15 24 33 64 39 -12 28 19 -39 5 7 -38 -1 2 -8 39 36 -4 -21 1 32 13 1
3 4 4 6 9 11 10 6 8 5 0 3 5 6 10 8 7 8 9 11 12 13 17 23 24 22 29 32 20 12 13 12 12 13 11 17 27 35 38 32 25 27 26 30 33 21 23 30 17 12 9 11 24 29 58 53 -8 8 33 -9 7 19 -25 -11 5 -9 18 39 7 -28 -2 34 3 -12
4 4 2 5 9 8 6 7 9 3 -1 4 5 7 10 8 7 8 9 11 12 16 20 23 25 25 28 27 15 10 13 11 10 11 8 10 21 31 39 38 28 28 29 28 32 23 21 30 18 11 10 8 22 28 48 61 9 -9 27 16 11 22 -8 -12 5 -8 3 35 13 -31 -11 29 3 -24
2 2 0 3 9 8 3 7 9 1 0 5 6 8 9 7 8 9 10 11 10 18 24 23 23 26 27 21 11 9 11 10 10 11 9 10 18 28 37 40 32 29 31 30 31 25 21 29 21 10 10 8 18 28 39 61 28 -11 18 23 4 22 15 -8 2 -6 -11 27 30 -13 -15 16 12 -14
-1 3 2 1 9 10 3 6 9 0 0 6 6 9 9 7 8 9 11 11 9 18 27 25 22 25 27 18 8 9 11 12 14 13 13 17 24 31 37 42 37 29 30 31 31 27 21 28 24 10 11 8 14 27 33 55 45 -3 11 26 -9 8 34 8 1 -3 -16 15 33 6 2 11 5 -4
-3 4 4 1 8 11 3 6 8 -0 1 7 7 10 9 7 9 9 11 11 10 19 27 26 23 24 26 17 6 9 13 14 15 13 14 15 15 24 36 47 45 33 30 31 32 30 21 27 27 11 11 9 10 27 27 44 57 12 6 29 -12 -15 33 22 -1 -1 -11 1 16 10 16 15 -7 -13
-0 4 4 4 8 9 3 5 7 -0 2 7 8 10 9 6 10 10 11 11 11 19 25 25 26 26 24 14 4 10 16 13 9 8 11 11 9 12 19 37 49 44 36 30 31 34 23 25 29 12 12 11 5 25 28 33 57 30 9 26 -7 -27 19 22 -4 3 2 -8 -1 8 13 15 2 -16
2 3 4 6 8 7 3 4 6 -0 2 8 9 11 8 6 11 11 10 12 13 20 25 24 28 28 21 10 4 10 15 10 5 4 4 1 8 16 10 18 38 47 46 35 30 36 26 25 31 14 10 14 5 17 29 30 48 41 19 21 0 -20 9 16 -9 2 17 -5 -11 8 13 13 12 -15
3 2 6 10 7 5 3 4 5 0 2 10 11 10 8 7 11 12 11 12 14 21 27 24 27 28 17 6 3 7 14 13 5 7 4 -13 -5 17 16 12 24 38 49 42 32 36 30 24 32 22 9 12 9 12 24 31 40 43 29 19 9 -7 -5 3 -13 -7 22 8 -15 7 21 15 16 -1
4 3 7 11 5 2 4 4 3 1 3 11 12 9 8 8 12 13 11 11 14 22 28 26 26 25 14 6 3 3 17 24 10 6 7 -9 -11 10 16 13 17 27 44 47 36 36 35 27 29 28 13 9 11 10 18 30 35 41 38 22 18 8 -12 -15 -22 -22 11 18 -7 1 25 20 10 12
-0 4 9 10 2 0 5 5 3 2 4 12 12 7 7 7 10 13 12 11 15 23 29 29 29 24 9 5 8 4 12 24 14 2 1 -4 -1 8 11 14 16 20 34 46 41 36 36 31 28 29 20 10 12 10 13 27 33 37 41 29 22 21 -0 -17 -27 -38 -17 15 5 -9 15 29 9 11
0 2 8 8 0 -1 5 6 3 1 6 13 12 7 7 8 8 13 14 12 15 23 31 32 31 22 7 7 15 8 5 10 7 2 -1 1 10 11 9 14 17 18 28 41 44 39 37 34 29 30 26 13 12 13 10 21 32 34 39 36 27 24 11 -4 -12 -32 -41 -10 10 -9 -2 29 20 12
6 -3 4 6 0 1 8 7 1 1 9 15 11 7 9 8 8 13 14 13 16 23 32 36 31 18 8 12 15 5 1 4 2 4 7 8 14 14 12 19 19 16 23 35 41 42 40 37 30 29 30 18 11 14 11 15 29 35 37 37 32 25 12 1 5 -5 -35 -35 -6 -2 -8 15 24 15
10 -6 -1 4 2 6 9 4 -1 5 14 16 10 8 10 8 8 13 13 13 18 23 32 40 32 14 9 15 12 0 0 5 4 8 12 10 14 19 21 27 27 20 20 29 38 40 39 40 34 28 30 24 13 12 12 13 22 34 38 36 34 27 13 3 6 9 -8 -33 -27 -2 1 1 14 12
12 -5 -3 4 6 8 7 1 1 10 17 14 9 8 9 8 8 13 14 13 18 24 32 40 32 14 11 14 9 2 3 5 4 9 12 10 15 24 27 28 30 28 22 24 35 41 40 39 36 30 29 27 19 13 12 13 18 32 40 36 34 27 11 8 11 8 7 -14 -38 -18 11 7 -1 -1
14 -0 -2 5 6 5 4 0 5 16 16 10 8 9 8 7 8 12 14 13 18 23 31 40 32 14 12 13 5 2 5 5 6 9 11 13 18 23 24 24 28 32 28 23 29 39 42 39 35 33 30 27 24 15 12 13 16 29 41 36 35 27 6 7 19 11 8 3 -30 -45 -9 19 4 -15
13 2 -1 5 6 4 3 3 9 18 14 7 9 10 7 8 8 11 13 12 18 24 29 38 33 13 9 11 3 1 3 4 8 10 9 16 22 20 22 26 29 34 36 32 28 31 40 41 36 33 30 28 27 19 13 14 14 26 40 36 33 28 6 2 21 19 5 8 -7 -49 -48 5 18 -12
9 2 0 4 5 1 2 6 13 17 11 6 9 9 8 9 8 10 13 11 17 26 28 36 33 13 6 8 1 -0 3 4 9 10 10 19 23 20 22 27 29 34 39 40 34 29 35 41 38 35 30 27 28 23 16 13 13 26 39 36 33 28 8 1 17 24 9 3 9 -20 -56 -24 24 10
4 2 2 3 2 -0 3 11 16 15 9 6 9 9 8 10 10 10 12 10 16 24 27 36 35 14 5 7 1 -1 3 6 8 9 14 22 20 12 10 13 22 34 40 44 41 33 33 38 39 39 33 27 27 25 20 14 11 25 37 35 34 27 9 5 12 20 16 3 8 6 -32 -37 12 28
1 1 3 3 2 2 8 16 16 11 8 7 8 8 9 11 12 12 11 9 15 21 25 36 37 19 6 5 0 -2 3 8 7 8 17 23 16 7 3 3 20 36 37 41 45 39 35 36 38 41 37 31 28 24 23 17 10 23 36 33 33 27 10 10 14 12 17 12 5 12 -6 -36 -21 13
-0 1 6 8 7 7 13 17 13 9 8 8 7 8 11 12 12 12 11 9 13 20 24 32 36 23 8 3 1 -1 3 7 6 7 20 22 9 4 3 4 23 40 36 37 45 43 39 35 35 41 39 34 31 25 24 20 10 19 35 32 30 27 12 13 21 11 11 16 10 12 14 -14 -41 -24
-1 6 14 14 10 12 16 15 10 8 8 7 7 9 11 13 12 12 12 9 13 20 23 30 36 23 5 2 2 -0 2 7 5 8 23 22 4 -1 5 7 21 37 37 37 42 43 42 37 33 40 41 35 32 27 24 22 12 15 32 33 27 24 14 15 25 17 8 14 13 11 20 13 -26 -49
6 16 16 10 10 15 15 11 9 9 7 5 9 9 9 12 11 12 13 9 13 22 23 30 39 25 4 1 4 1 1 5 5 9 21 19 -0 -3 10 15 19 30 35 38 40 40 41 38 32 37 42 38 33 28 25 23 15 13 25 32 27 19 14 18 25 20 11 12 15 13 16 23 3 -42
17 16 7 7 15 16 11 9 9 8 6 6 9 9 9 11 11 12 13 9 11 21 23 28 40 30 8 1 4 2 1 3 6 10 16 14 1 -1 14 21 20 26 35 40 41 39 39 40 36 35 38 39 34 28 26 23 17 15 21 28 28 17 9 18 27 21 13 12 15 18 16 20 19 -13
15 7 4 13 17 10 8 11 8 5 5 7 8 8 9 12 12 11 12 9 10 20 24 27 38 35 13 1 3 2 -0 4 9 10 15 19 12 6 14 18 15 23 36 43 42 40 41 44 41 34 35 39 35 29 28 24 16 16 21 25 29 21 6 12 27 24 15 14 15 20 21 18 22 12
6 5 12 16 12 7 10 11 6 4 6 6 8 9 9 11 13 12 11 9 9 17 24 27 36 38 18 3 3 2 -1 5 10 8 15 26 20 9 8 9 11 20 31 38 42 44 45 46 43 35 34 38 36 29 28 27 17 13 19 24 29 25 7 5 23 25 16 16 17 18 23 20 19 22
5 10 15 11 6 9 12 8 4 5 6 6 8 10 9 11 12 11 12 11 8 13 23 27 34 38 24 5 2 2 -1 5 9 6 11 21 21 12 3 -0 8 17 19 24 36 43 45 44 41 38 35 35 36 31 26 26 19 12 15 21 28 30 13 1 15 26 19 17 19 18 23 24 17 19
8 14 13 5 6 12 11 6 5 5 5 8 9 9 9 10 12 11 12 12 9 10 20 27 32 37 28 9 2 3 -0 2 8 6 6 19 31 25 5 -4 9 20 17 17 28 39 47 45 38 38 37 33 33 32 27 25 19 11 13 17 22 30 23 5 7 22 22 19 21 20 22 25 20 17
12 14 8 2 7 13 9 5 5 4 5 8 8 8 10 10 10 12 12 12 10 9 15 25 31 36 33 16 3 3 1 0 7 7 5 20 39 29 4 -1 12 19 20 21 19 26 43 52 43 36 35 33 31 30 26 24 19 10 11 15 16 22 26 14 7 16 23 21 22 23 23 25 20 16
12 11 4 2 9 12 8 5 5 4 6 9 8 8 10 9 9 12 12 12 11 9 11 21 29 35 37 24 6 2 4 1 4 8 6 18 36 26 3 4 14 13 14 20 15 11 28 49 52 42 34 31 30 29 27 24 20 13 8 13 17 16 19 16 9 14 25 26 23 23 23 25 24 17
12 7 2 4 10 11 7 5 5 5 6 8 9 8 9 10 9 11 12 12 12 10 8 15 25 31 39 34 12 1 5 2 1 8 7 13 31 28 4 1 14 14 8 11 13 9 15 30 41 43 40 35 28 28 29 22 18 17 10 8 16 18 15 14 7 7 21 30 31 29 25 23 26 21
11 5 1 6 10 10 7 4 4 6 6 7 9 9 9 10 8 9 12 12 12 11 7 10 19 26 36 41 24 4 2 3 -0 5 8 9 24 32 12 -3 8 18 13 7 10 13 13 17 24 30 40 44 31 23 28 25 18 19 16 9 12 18 19 17 9 1 11 25 29 33 31 25 25 24
9 4 3 7 11 10 7 4 5 7 6 6 9 9 9 10 8 7 11 12 11 12 8 7 14 21 30 42 37 13 1 2 1 4 8 5 12 28 24 4 -0 13 17 9 6 10 11 14 20 21 29 46 43 24 22 26 20 18 19 14 12 13 15 20 15 4 6 21 27 28 29 28 26 24
8 6 5 8 12 9 6 5 5 7 6 5 8 10 9 10 9 6 9 13 11 11 10 7 10 17 23 37 45 27 6 1 2 4 6 4 5 19 29 17 1 3 12 9 5 8 9 13 22 21 16 32 46 34 21 24 23 19 18 17 14 13 12 15 18 9 2 14 28 30 27 27 28 24
8 6 5 10 13 8 4 5 6 7 6 4 7 10 9 9 10 7 7 12 12 11 11 8 7 12 17 28 44 41 18 1 1 4 5 5 5 11 24 29 13 -1 3 9 6 6 7 10 21 27 18 20 35 34 23 22 23 20 20 17 13 15 14 11 15 14 5 6 20 29 28 26 27 26
5 8 9 11 12 6 4 6 6 6 7 4 5 10 10 9 11 9 7 11 12 11 12 10 7 9 13 19 35 47 33 10 0 2 4 6 7 4 12 29 29 7 -3 6 10 9 9 6 8 16 19 19 24 25 23 25 22 18 21 20 13 13 16 13 11 13 9 5 13 25 28 26 26 28
8 11 11 10 11 7 4 5 6 7 7 4 4 9 10 9 11 10 7 9 12 12 12 11 8 8 10 12 24 42 44 24 4 -1 3 5 7 5 5 18 32 23 5 0 2 5 12 12 5 3 9 16 20 18 17 24 26 20 19 21 16 14 16 14 12 12 9 5 9 21 28 26 24 27
10 10 9 8 10 8 4 4 7 8 6 4 4 7 10 10 11 11 9 9 10 12 12 11 9 8 8 9 15 29 44 40 17 1 1 3 5 7 5 5 16 27 24 13 0 -3 7 16 11 3 2 9 20 23 18 17 22 22 20 19 18 17 17 16 14 13 11 5 3 14 25 27 23 24
9 7 8 9 9 8 5 4 7 8 7 5 4 5 9 10 10 11 11 10 10 12 13 11 10 8 7 9 10 16 32 46 35 12 2 2 3 5 6 3 4 14 27 27 15 8 13 17 14 13 13 8 11 21 25 20 19 21 20 18 16 15 17 18 16 14 15 10 3 5 17 26 25 23
9 8 9 9 9 8 5 4 7 9 7 4 4 4 7 10 10 10 11 11 10 12 13 12 11 9 7 8 9 9 16 34 44 33 13 2 1 4 6 6 3 4 14 22 20 17 18 13 7 14 27 23 14 16 24 24 21 21 20 18 16 14 14 16 16 14 15 15 8 2 7 19 26 24
11 10 10 9 9 7 5 4 7 10 7 5 4 4 5 8 10 10 10 11 11 11 12 12 12 12 9 6 8 9 8 16 32 43 34 15 3 1 4 7 6 2 4 11 16 17 19 14 4 4 16 23 19 17 22 23 20 19 20 19 17 15 13 13 15 15 13 15 14 8 3 9 21 28
15 12 9 8 8 7 5 4 6 9 8 5 4 4 5 8 9 9 9 11 12 12 13 13 12 12 12 8 6 7 9 8 14 30 41 36 20 7 1 4 7 6 2 2 7 14 20 21 14 7 10 18 21 19 21 24 20 16 16 17 17 16 13 11 13 14 13 13 14 14 9 4 8 18
16 11 8 8 9 8 5 4 6 9 8 6 4 5 5 7 9 9 9 10 11 12 13 13 13 12 12 12 9 6 8 9 8 12 24 37 38 27 12 2 3 8 7 2 -0 3 11 19 20 13 9 15 22 22 22 25 25 19 15 13 13 15 14 13 11 11 13 13 12 13 14 11 6 9
Height
5395 5392 5388 5384 5380 5376 5373 5368 5363 5358 5353 5348 5343 5338 5331 5326 5322 5320 5318 5308 5292 5280 5273 5265 5258 5250 5242 5237 5230 5223 5218 5213 5208 5205 5201 5198 5196 5193 5192 5191 5192 5192 5194 5198 5203 5208 5215 5222 5230 5238 5247 5255 5263 5273 5282 5290 5303 5316 5328 5342 5356 5366 5377 5390 5403 5417 5430 5442 5454 5466 5478 5490 5500 5509
5388 5385 5381 5378 5374 5370 5366 5361 5356 5351 5347 5341 5336 5330 5324 5318 5312 5307 5306 5301 5287 5275 5267 5258 5252 5246 5237 5230 5225 5219 5214 5209 5205 5201 5197 5194 5192 5189 5187 5186 5186 5187 5188 5192 5197 5203 5209 5216 5224 5233 5242 5250 5258 5267 5276 5285 5296 5309 5319 5331 5342 5352 5363 5377 5392 5405 5418 5431 5445 5459 5471 5482 5493 5502
5382 5379 5375 5371 5367 5364 5360 5355 5350 5345 5340 5335 5329 5323 5317 5311 5304 5298 5295 5292 5282 5269 5262 5253 5244 5239 5233 5226 5220 5216 5211 5206 5202 5197 5193 5190 5187 5185 5184 5182 5181 5182 5183 5186 5191 5197 5203 5209 5218 5227 5235 5244 5252 5260 5270 5278 5288 5301 5312 5324 5335 5344 5355 5368 5380 5394 5408 5421 5435 5450 5462 5473 5483 5493
5376 5373 5369 5365 5361 5358 5354 5348 5344 5339 5334 5328 5322 5316 5311 5304 5297 5291 5286 5283 5276 5263 5254 5248 5240 5233 5228 5222 5216 5212 5208 5203 5198 5193 5188 5185 5183 5181 5180 5178 5177 5177 5178 5181 5185 5191 5197 5203 5211 5219 5227 5235 5243 5251 5261 5270 5279 5291 5304 5317 5328 5338 5349 5361 5372 5385 5400 5413 5427 5439 5450 5461 5472 5483
5370 5367 5363 5359 5355 5351 5347 5342 5337 5333 5327 5322 5316 5310 5304 5297 5290 5284 5279 5274 5270 5260 5248 5241 5235 5228 5223 5218 5212 5208 5206 5201 5196 5191 5186 5181 5179 5177 5175 5174 5173 5173 5173 5176 5180 5185 5190 5196 5204 5212 5219 5227 5235 5243 5253 5262 5270 5282 5295 5309 5321 5331 5342 5355 5366 5379 5394 5406 5419 5431 5441 5452 5463 5474
5363 5361 5357 5353 5349 5345 5341 5336 5331 5327 5321 5315 5310 5303 5297 5292 5284 5278 5273 5266 5261 5255 5245 5236 5230 5224 5218 5214 5209 5204 5202 5199 5194 5190 5184 5179 5175 5172 5170 5169 5168 5168 5169 5171 5174 5179 5184 5190 5197 5204 5212 5220 5228 5237 5246 5256 5264 5274 5287 5301 5314 5326 5337 5349 5361 5374 5388 5400 5413 5425 5436 5446 5457 5468
5357 5354 5351 5347 5343 5340 5335 5331 5325 5321 5316 5309 5304 5298 5291 5286 5280 5272 5266 5260 5253 5248 5241 5232 5225 5220 5215 5210 5206 5202 5200 5197 5192 5188 5182 5177 5173 5169 5166 5165 5164 5163 5164 5166 5169 5173 5179 5184 5191 5198 5206 5213 5222 5230 5240 5250 5259 5269 5282 5295 5308 5320 5331 5343 5355 5369 5382 5395 5407 5420 5430 5439 5449 5461
5351 5348 5345 5342 5338 5334 5329 5325 5320 5315 5310 5304 5298 5292 5286 5280 5275 5268 5261 5254 5247 5240 5235 5227 5220 5215 5211 5206 5203 5200 5197 5194 5189 5185 5180 5175 5170 5166 5163 5161 5160 5159 5159 5161 5164 5168 5173 5179 5185 5192 5200 5208 5216 5225 5234 5244 5254 5264 5277 5290 5302 5315 5326 5337 5350 5364 5376 5388 5400 5411 5423 5433 5442 5453
5345 5342 5339 5336 5332 5328 5324 5319 5315 5309 5304 5299 5292 5287 5281 5275 5270 5264 5256 5248 5241 5234 5228 5222 5216 5210 5206 5203 5199 5196 5194 5192 5187 5182 5177 5172 5167 5164 5160 5157 5156 5156 5156 5157 5159 5163 5167 5173 5179 5185 5193 5201 5210 5219 5227 5237 5247 5258 5271 5284 5295 5308 5320 5331 5344 5358 5369 5379 5390 5402 5414 5425 5434 5445
5339 5336 5333 5330 5326 5322 5318 5314 5309 5304 5299 5293 5287 5281 5276 5271 5265 5258 5251 5243 5235 5228 5221 5215 5211 5206 5202 5199 5196 5193 5191 5188 5184 5180 5176 5170 5165 5162 5158 5155 5152 5151 5152 5152 5154 5157 5162 5167 5172 5179 5186 5195 5203 5212 5221 5231 5241 5253 5266 5278 5289 5302 5313 5323 5336 5350 5361 5370 5381 5394 5405 5415 5426 5437
5333 5330 5327 5324 5321 5317 5313 5309 5304 5299 5294 5288 5282 5276 5271 5266 5260 5253 5246 5238 5230 5223 5215 5209 5205 5202 5198 5195 5193 5190 5187 5184 5180 5176 5173 5169 5164 5160 5156 5153 5149 5147 5147 5147 5149 5152 5156 5161 5167 5173 5180 5189 5198 5207 5216 5225 5235 5246 5260 5272 5285 5298 5307 5315 5328 5341 5351 5362 5374 5386 5398 5408 5418 5429
5327 5325 5322 5319 5315 5311 5307 5303 5298 5294 5289 5284 5278 5272 5267 5261 5256 5249 5241 5233 5225 5218 5211 5205 5201 5198 5195 5191 5188 5186 5182 5180 5176 5171 5168 5165 5161 5157 5154 5150 5146 5143 5142 5143 5144 5146 5150 5155 5161 5168 5176 5184 5192 5201 5210 5219 5229 5240 5253 5266 5279 5292 5300 5307 5321 5334 5343 5354 5366 5379 5390 5401 5411 5423
5321 5319 5316 5313 5310 5306 5302 5297 5293 5289 5284 5279 5274 5268 5263 5257 5252 5245 5237 5229 5222 5214 5208 5202 5197 5194 5192 5188 5185 5182 5178 5175 5171 5166 5162 5159 5156 5153 5151 5148 5142 5138 5138 5138 5139 5141 5143 5149 5156 5163 5171 5179 5187 5196 5204 5214 5223 5234 5247 5260 5273 5285 5292 5298 5312 5326 5337 5348 5360 5372 5384 5394 5405 5417
5315 5313 5310 5307 5304 5300 5297 5292 5288 5284 5279 5274 5268 5264 5259 5253 5248 5242 5234 5226 5218 5211 5204 5198 5194 5191 5189 5185 5181 5179 5175 5170 5165 5160 5156 5154 5151 5148 5147 5145 5138 5132 5133 5134 5135 5135 5137 5142 5149 5156 5165 5173 5181 5190 5200 5209 5218 5228 5240 5253 5266 5279 5285 5291 5304 5318 5329 5341 5354 5366 5378 5388 5399 5411
5309 5307 5304 5302 5299 5295 5292 5288 5283 5279 5274 5269 5263 5258 5253 5248 5242 5237 5230 5223 5215 5207 5201 5195 5190 5187 5185 5182 5178 5175 5172 5167 5161 5156 5152 5149 5147 5143 5141 5140 5135 5128 5126 5129 5131 5131 5131 5135 5143 5150 5158 5166 5175 5185 5195 5203 5212 5222 5234 5247 5260 5272 5279 5285 5298 5312 5323 5334 5348 5360 5372 5382 5393 5406
5303 5301 5299 5296 5293 5290 5287 5283 5279 5274 5269 5264 5259 5254 5248 5243 5237 5231 5225 5218 5211 5204 5198 5192 5187 5184 5182 5179 5175 5172 5169 5165 5159 5154 5149 5145 5142 5138 5134 5133 5130 5124 5121 5123 5126 5125 5124 5128 5136 5144 5151 5159 5167 5178 5188 5197 5206 5216 5228 5241 5253 5265 5273 5280 5293 5307 5318 5329 5342 5354 5365 5376 5387 5399
5297 5296 5293 5291 5288 5285 5282 5278 5274 5270 5265 5259 5254 5250 5244 5238 5232 5226 5220 5213 5207 5201 5195 5189 5185 5181 5178 5176 5173 5169 5165 5161 5156 5151 5148 5143 5139 5134 5129 5126 5123 5119 5116 5116 5119 5120 5119 5121 5130 5138 5145 5152 5160 5171 5181 5191 5201 5211 5223 5235 5248 5259 5267 5275 5288 5301 5313 5325 5337 5349 5359 5369 5381 5392
5292 5290 5288 5285 5283 5280 5277 5274 5270 5266 5261 5255 5250 5245 5239 5233 5227 5221 5215 5209 5203 5197 5191 5186 5182 5178 5175 5172 5170 5166 5161 5157 5152 5149 5146 5141 5136 5130 5124 5120 5116 5113 5110 5110 5112 5115 5113 5114 5123 5132 5138 5144 5154 5164 5175 5185 5195 5206 5218 5230 5242 5254 5262 5270 5283 5296 5306 5318 5332 5343 5354 5364 5374 5385
5286 5285 5283 5280 5278 5275 5272 5269 5266 5261 5256 5251 5246 5241 5234 5228 5222 5216 5211 5205 5199 5192 5186 5182 5178 5175 5172 5169 5167 5163 5158 5154 5150 5146 5142 5136 5131 5125 5120 5115 5110 5106 5104 5103 5105 5107 5106 5107 5115 5124 5129 5136 5147 5158 5168 5180 5191 5202 5214 5225 5236 5248 5256 5265 5278 5290 5300 5312 5325 5337 5348 5359 5368 5379
5281 5279 5278 5275 5273 5270 5268 5265 5261 5257 5253 5248 5243 5237 5230 5224 5218 5212 5206 5201 5195 5189 5183 5178 5175 5172 5170 5167 5164 5160 5156 5152 5148 5143 5138 5131 5125 5120 5115 5111 5106 5101 5099 5097 5098 5100 5098 5098 5106 5115 5120 5128 5140 5152 5163 5175 5187 5197 5209 5220 5231 5242 5251 5260 5274 5285 5295 5306 5318 5330 5343 5354 5363 5373
5275 5274 5272 5270 5268 5266 5263 5260 5257 5253 5249 5244 5239 5233 5227 5221 5215 5208 5202 5196 5191 5185 5180 5176 5172 5170 5167 5165 5161 5157 5153 5149 5145 5141 5135 5128 5122 5117 5112 5107 5102 5097 5094 5092 5091 5092 5091 5092 5100 5110 5115 5123 5135 5147 5159 5171 5183 5194 5205 5216 5227 5236 5245 5255 5268 5279 5289 5300 5311 5323 5337 5349 5357 5367
5270 5269 5268 5266 5264 5261 5259 5256 5252 5249 5245 5241 5235 5230 5224 5218 5212 5205 5199 5193 5187 5182 5178 5173 5170 5167 5165 5162 5159 5155 5152 5147 5142 5138 5132 5126 5121 5115 5109 5105 5101 5095 5090 5088 5087 5087 5087 5089 5096 5104 5111 5121 5133 5144 5155 5167 5179 5190 5201 5212 5222 5231 5239 5250 5262 5272 5282 5293 5304 5317 5330 5342 5350 5359
5265 5264 5263 5261 5259 5257 5254 5251 5248 5245 5241 5237 5232 5227 5222 5216 5210 5204 5198 5191 5184 5178 5174 5170 5167 5164 5162 5160 5157 5153 5150 5146 5140 5135 5130 5124 5120 5114 5108 5103 5099 5093 5088 5084 5083 5083 5084 5086 5092 5099 5107 5117 5127 5137 5148 5161 5173 5185 5197 5207 5218 5226 5234 5245 5257 5266 5275 5286 5297 5309 5322 5334 5343 5353
5261 5259 5258 5257 5255 5253 5250 5247 5244 5241 5238 5233 5229 5224 5219 5215 5209 5204 5197 5190 5183 5176 5171 5166 5163 5161 5159 5157 5155 5152 5149 5145 5139 5134 5129 5124 5119 5113 5108 5103 5097 5091 5086 5082 5080 5080 5081 5084 5089 5095 5103 5113 5122 5132 5143 5155 5167 5179 5191 5202 5213 5221 5228 5239 5251 5261 5269 5279 5290 5302 5315 5327 5337 5347
5256 5255 5253 5252 5251 5248 5246 5243 5241 5238 5234 5230 5226 5221 5217 5213 5207 5201 5194 5187 5181 5175 5169 5165 5161 5159 5157 5156 5154 5151 5148 5143 5139 5134 5129 5123 5118 5113 5109 5104 5097 5090 5085 5081 5079 5079 5079 5082 5086 5092 5100 5109 5118 5128 5139 5151 5164 5175 5186 5197 5208 5216 5223 5233 5245 5255 5263 5274 5284 5295 5308 5320 5332 5343
5251 5250 5249 5248 5246 5244 5241 5239 5237 5234 5230 5227 5223 5219 5215 5209 5203 5196 5190 5184 5179 5173 5168 5164 5160 5158 5156 5155 5152 5150 5146 5142 5138 5134 5129 5123 5118 5114 5110 5105 5098 5092 5086 5081 5079 5078 5078 5080 5084 5089 5096 5105 5114 5124 5135 5148 5161 5173 5184 5194 5203 5211 5218 5228 5239 5249 5258 5268 5279 5291 5303 5315 5327 5337
5247 5246 5245 5244 5242 5240 5238 5236 5233 5230 5227 5223 5220 5216 5211 5205 5199 5193 5188 5183 5178 5173 5167 5163 5159 5156 5155 5153 5151 5148 5145 5141 5138 5134 5129 5124 5120 5116 5112 5107 5100 5094 5088 5083 5080 5078 5078 5080 5084 5088 5094 5102 5112 5123 5135 5147 5159 5171 5182 5191 5199 5207 5214 5223 5233 5244 5253 5263 5274 5285 5297 5309 5320 5329
5242 5242 5241 5240 5238 5236 5234 5232 5230 5227 5224 5220 5217 5213 5208 5202 5197 5192 5187 5182 5178 5172 5167 5162 5158 5155 5153 5152 5150 5147 5145 5142 5138 5135 5130 5126 5121 5117 5113 5108 5103 5097 5091 5086 5083 5081 5081 5082 5085 5089 5095 5103 5112 5123 5134 5146 5157 5168 5179 5188 5196 5204 5212 5219 5228 5239 5248 5257 5268 5278 5290 5302 5312 5322
5239 5238 5237 5236 5234 5233 5231 5229 5226 5224 5221 5218 5214 5210 5205 5200 5195 5191 5186 5182 5176 5171 5166 5160 5156 5154 5152 5151 5149 5147 5145 5142 5139 5135 5131 5126 5122 5119 5115 5110 5105 5100 5095 5091 5087 5085 5085 5086 5088 5093 5098 5105 5114 5124 5134 5144 5155 5165 5175 5184 5193 5201 5209 5215 5224 5233 5242 5252 5262 5273 5284 5296 5307 5316
5235 5234 5234 5232 5231 5229 5228 5226 5223 5221 5218 5215 5211 5207 5203 5198 5194 5190 5185 5180 5175 5170 5165 5160 5155 5152 5151 5149 5148 5146 5144 5142 5139 5135 5131 5127 5124 5120 5117 5114 5109 5104 5100 5097 5094 5091 5090 5091 5093 5097 5102 5108 5116 5125 5133 5142 5152 5162 5170 5180 5189 5198 5206 5212 5219 5227 5237 5247 5258 5268 5279 5289 5299 5308
5231 5231 5230 5229 5228 5226 5225 5223 5221 5218 5216 5212 5209 5205 5201 5196 5192 5188 5184 5179 5175 5170 5165 5160 5155 5152 5149 5148 5147 5146 5144 5142 5139 5136 5133 5129 5125 5122 5120 5117 5113 5110 5106 5103 5100 5098 5097 5097 5099 5102 5106 5112 5118 5126 5133 5141 5150 5158 5167 5176 5185 5193 5201 5209 5215 5223 5233 5243 5252 5262 5272 5281 5291 5300
5228 5227 5227 5226 5225 5223 5222 5220 5218 5216 5213 5210 5206 5203 5199 5195 5191 5187 5183 5179 5174 5169 5164 5159 5155 5151 5149 5147 5146 5145 5143 5142 5139 5137 5134 5131 5127 5124 5122 5120 5117 5114 5111 5109 5107 5105 5104 5105 5106 5108 5112 5117 5122 5128 5135 5142 5150 5158 5166 5174 5181 5189 5198 5206 5213 5220 5229 5238 5247 5256 5266 5276 5286 5296
5225 5224 5224 5223 5222 5221 5219 5218 5216 5213 5211 5208 5204 5201 5197 5194 5190 5186 5182 5177 5173 5168 5163 5159 5154 5151 5148 5146 5145 5144 5143 5142 5140 5138 5135 5133 5130 5127 5125 5123 5121 5119 5116 5114 5113 5112 5112 5112 5113 5115 5117 5121 5126 5131 5138 5144 5152 5159 5166 5174 5182 5191 5198 5205 5211 5218 5225 5233 5243 5253 5263 5273 5282 5291
5222 5221 5221 5220 5219 5218 5217 5215 5213 5211 5209 5206 5203 5199 5196 5192 5188 5184 5180 5176 5172 5167 5163 5159 5155 5151 5148 5146 5145 5144 5143 5142 5140 5138 5137 5135 5132 5129 5127 5126 5124 5123 5121 5120 5119 5118 5118 5119 5120 5121 5123 5125 5130 5135 5141 5147 5153 5160 5168 5176 5185 5193 5200 5206 5211 5217 5223 5231 5240 5248 5257 5267 5275 5284
5219 5219 5218 5217 5216 5215 5214 5212 5211 5209 5207 5204 5201 5198 5194 5190 5186 5182 5178 5175 5171 5167 5163 5159 5155 5151 5148 5145 5144 5143 5143 5142 5140 5139 5138 5136 5134 5132 5130 5129 5127 5126 5125 5125 5124 5124 5124 5124 5126 5127 5129 5131 5134 5139 5144 5149 5155 5162 5170 5177 5184 5191 5198 5203 5209 5215 5221 5228 5235 5243 5251 5260 5269 5277
5216 5216 5215 5215 5214 5213 5212 5210 5209 5207 5205 5202 5199 5196 5192 5188 5185 5181 5177 5173 5170 5166 5163 5160 5156 5152 5148 5145 5143 5142 5142 5141 5140 5139 5138 5137 5135 5134 5132 5131 5130 5129 5129 5129 5129 5128 5129 5129 5130 5132 5134 5136 5139 5142 5146 5151 5156 5162 5169 5176 5183 5189 5195 5200 5206 5211 5217 5223 5231 5239 5247 5255 5263 5270
5214 5213 5213 5212 5211 5210 5209 5208 5206 5205 5203 5200 5197 5194 5190 5187 5183 5180 5176 5173 5170 5167 5163 5160 5156 5153 5149 5146 5143 5142 5141 5141 5141 5140 5139 5138 5137 5136 5134 5133 5133 5132 5132 5132 5132 5132 5133 5133 5134 5135 5137 5140 5142 5145 5148 5152 5157 5162 5167 5174 5181 5187 5192 5198 5204 5209 5214 5220 5227 5235 5242 5250 5257 5264
5211 5211 5210 5210 5209 5208 5207 5206 5204 5203 5201 5198 5195 5192 5189 5185 5182 5179 5176 5173 5170 5167 5163 5160 5157 5153 5150 5146 5143 5141 5140 5140 5140 5140 5139 5139 5138 5137 5136 5135 5135 5135 5134 5134 5135 5135 5136 5137 5138 5139 5140 5142 5145 5147 5150 5153 5157 5162 5167 5173 5179 5184 5190 5196 5202 5207 5212 5218 5224 5231 5238 5245 5251 5258
5209 5208 5208 5207 5206 5206 5205 5204 5202 5201 5198 5196 5193 5190 5187 5184 5181 5178 5175 5172 5169 5166 5163 5160 5157 5154 5151 5147 5144 5141 5140 5140 5140 5140 5139 5139 5138 5138 5137 5137 5136 5136 5136 5136 5137 5138 5138 5139 5140 5142 5143 5145 5146 5149 5151 5154 5158 5162 5167 5172 5178 5182 5188 5194 5200 5205 5211 5216 5221 5227 5234 5240 5246 5252
5206 5206 5205 5205 5204 5204 5203 5202 5200 5198 5196 5194 5191 5189 5185 5182 5180 5177 5174 5171 5168 5165 5162 5160 5157 5154 5152 5148 5145 5142 5140 5139 5139 5139 5139 5139 5139 5138 5138 5138 5138 5138 5138 5138 5138 5139 5139 5140 5141 5143 5144 5146 5147 5150 5152 5155 5159 5162 5167 5171 5176 5181 5186 5192 5198 5203 5209 5213 5218 5223 5229 5235 5240 5246
5204 5203 5203 5203 5202 5202 5201 5200 5198 5196 5194 5192 5190 5187 5184 5181 5178 5176 5173 5170 5167 5164 5162 5159 5157 5155 5152 5149 5146 5144 5141 5139 5139 5139 5139 5139 5139 5139 5139 5138 5138 5138 5138 5139 5139 5139 5140 5141 5142 5143 5144 5146 5147 5149 5152 5155 5159 5162 5166 5170 5174 5179 5184 5189 5195 5200 5205 5210 5215 5219 5224 5230 5235 5240
5202 5201 5201 5201 5200 5200 5199 5198 5196 5194 5192 5190 5188 5185 5183 5180 5177 5174 5171 5169 5166 5163 5161 5159 5157 5154 5152 5150 5147 5145 5142 5140 5138 5138 5138 5138 5138 5138 5138 5139 5139 5139 5139 5139 5139 5140 5140 5141 5142 5143 5144 5145 5147 5148 5151 5154 5158 5161 5165 5169 5173 5177 5182 5186 5191 5196 5201 5206 5211 5215 5220 5225 5231 5236
5200 5199 5199 5199 5198 5198 5197 5196 5194 5192 5190 5188 5186 5184 5181 5178 5176 5173 5170 5167 5165 5163 5160 5158 5156 5154 5152 5150 5148 5145 5143 5141 5139 5137 5137 5137 5137 5138 5138 5138 5138 5138 5139 5139 5140 5140 5141 5141 5142 5143 5144 5145 5146 5148 5150 5152 5156 5160 5164 5167 5171 5175 5180 5184 5188 5193 5198 5202 5207 5211 5215 5220 5225 5230
5198 5197 5197 5197 5196 5196 5195 5194 5192 5190 5188 5186 5184 5182 5180 5177 5174 5171 5169 5166 5164 5162 5159 5157 5156 5154 5152 5150 5148 5146 5144 5142 5140 5138 5136 5136 5136 5136 5137 5137 5138 5138 5138 5139 5139 5140 5140 5141 5142 5143 5143 5145 5146 5148 5149 5151 5154 5157 5161 5165 5169 5173 5177 5181 5185 5190 5194 5199 5203 5207 5211 5215 5219 5225
5196 5195 5195 5195 5194 5194 5193 5192 5190 5188 5186 5184 5182 5180 5178 5175 5172 5170 5167 5165 5162 5160 5158 5156 5155 5153 5151 5149 5148 5146 5144 5142 5140 5139 5137 5135 5135 5135 5135 5136 5136 5137 5138 5138 5139 5139 5140 5140 5141 5142 5143 5144 5145 5146 5148 5150 5152 5155 5158 5162 5166 5170 5174 5178 5182 5186 5190 5195 5199 5203 5207 5211 5215 5220